Sparta, WI

1:22 PM CST on February 23, 2018 (GMT -0600)
Sparta-Fort McCoy

Weather History for KCMY - January, 2014

Change the Weather History Date:

Thursday, January 23, 2014

  Actual Average Record
Temperature  
Mean Temperature -9 °F -  
Max Temperature 1 °F 28 °F 46 °F (1981)
Min Temperature -19 °F 8 °F -30 °F (1963)
Degree Days  
Heating Degree Days 74    
Moisture  
Dew Point -16 °F    
Average Humidity 64    
Maximum Humidity 84    
Minimum Humidity 52    
Precipitation  
Precipitation 0.00 in - - ()
Sea Level Pressure  
Sea Level Pressure 30.52 in    
Wind  
Wind Speed 8 mph (West)    
Max Wind Speed 13 mph    
Max Gust Speed 18 mph    
Visibility 10 miles    
Events      
Averages and records for this station are not official NWS values.
T = Trace of Precipitation, MM = Missing Value Source: NWS Daily Summary

Daily Weather History Graph

Daily Weather History Graph

Search for Another Location

Airport or City:

Trip Planner

Search our weather history database for the weather conditions in past years. The results will help you decide how hot, cold, wet, or windy it might be!

Date:

Astronomy

Jan. 23, 2014 Rise Set
Actual Time 7:28 AM CST 5:01 PM CST
Civil Twilight 6:57 AM CST 5:32 PM CST
Nautical Twilight 6:22 AM CST 6:07 PM CST
Astronomical Twilight 5:48 AM CST 6:41 PM CST
Moon No Moon Rise 10:48 AM CST
Length of Visible Light 10h 35m
Length of Day
9h 32m
Waning Gibbous, 55% of the Moon is Illuminated
Jan 23
Waning Gibbous
Jan 23
Last Quarter
Jan 30
New
Feb 6
First Quarter
Feb 14
Full

Hourly Weather History & Observations

Time (CST) Temp. Windchill Dew Point Humidity Pressure Visibility Wind Dir Wind Speed Gust Speed Precip Events Conditions
12:15 AM -4.4 °F -22.6 °F -14.1 °F 63% 30.32 in 10.0 mi WNW 11.5 mph 18.4 mph N/A   Clear
12:35 AM -4.2 °F -23.2 °F -14.3 °F 62% 30.32 in 10.0 mi WNW 12.7 mph 17.3 mph N/A   Clear
12:55 AM -4.4 °F -21.6 °F -14.3 °F 62% 30.33 in 10.0 mi WNW 10.4 mph 17.3 mph N/A   Clear
1:15 AM -4.5 °F -19.7 °F -14.3 °F 63% 30.34 in 10.0 mi West 8.1 mph 16.1 mph N/A   Clear
1:35 AM -4.9 °F -18.8 °F -14.3 °F 64% 30.35 in 10.0 mi WNW 6.9 mph - N/A   Clear
1:55 AM -4.9 °F -20.1 °F -14.3 °F 64% 30.36 in 10.0 mi WNW 8.1 mph - N/A   Clear
2:15 AM -4.9 °F -20.1 °F -14.3 °F 64% 30.38 in 10.0 mi WNW 8.1 mph 17.3 mph N/A   Clear
2:35 AM -5.6 °F -21.0 °F -14.8 °F 65% 30.39 in 10.0 mi WNW 8.1 mph - N/A   Clear
2:55 AM -6.0 °F -21.5 °F -14.6 °F 66% 30.39 in 10.0 mi NW 8.1 mph - N/A   Clear
3:15 AM -6.0 °F -21.5 °F -14.8 °F 66% 30.41 in 10.0 mi WNW 8.1 mph - N/A   Clear
3:35 AM -5.8 °F -18.4 °F -14.8 °F 65% 30.42 in 10.0 mi WNW 5.8 mph - N/A   Clear
3:55 AM -6.3 °F -20.6 °F -14.8 °F 67% 30.43 in 10.0 mi WNW 6.9 mph - N/A   Clear
4:15 AM -6.3 °F -24.1 °F -15.0 °F 66% 30.44 in 10.0 mi WNW 10.4 mph 16.1 mph N/A   Clear
4:35 AM -6.9 °F -22.5 °F -15.0 °F 68% 30.46 in 10.0 mi WNW 8.1 mph - N/A   Clear
4:55 AM -6.9 °F -24.8 °F -15.2 °F 67% 30.47 in 10.0 mi WNW 10.4 mph - N/A   Clear
5:15 AM -7.1 °F -22.8 °F -15.2 °F 68% 30.48 in 10.0 mi WNW 8.1 mph 17.3 mph N/A   Clear
5:35 AM -7.2 °F -23.0 °F -15.3 °F 68% 30.49 in 10.0 mi WNW 8.1 mph - N/A   Clear
5:55 AM -7.6 °F -20.6 °F -15.3 °F 69% 30.50 in 10.0 mi West 5.8 mph - N/A   Clear
6:15 AM -7.8 °F -23.6 °F -15.5 °F 69% 30.52 in 10.0 mi West 8.1 mph - N/A   Clear
6:35 AM -8.5 °F -23.2 °F -15.7 °F 71% 30.53 in 10.0 mi West 6.9 mph - N/A   Clear
6:55 AM -8.5 °F -24.5 °F -15.7 °F 71% 30.54 in 10.0 mi WNW 8.1 mph - N/A   Scattered Clouds
7:15 AM -8.7 °F -24.7 °F -15.9 °F 71% 30.55 in 10.0 mi WNW 8.1 mph - N/A   Scattered Clouds
7:35 AM -9.0 °F -23.8 °F -16.4 °F 70% 30.56 in 10.0 mi WNW 6.9 mph - N/A   Scattered Clouds
7:55 AM -8.9 °F -23.6 °F -16.2 °F 70% 30.57 in 10.0 mi WNW 6.9 mph - N/A   Clear
8:15 AM -8.1 °F -22.7 °F -15.9 °F 69% 30.57 in 10.0 mi WNW 6.9 mph - N/A   Scattered Clouds
8:35 AM -9.0 °F -22.3 °F -16.6 °F 69% 30.59 in 10.0 mi West 5.8 mph - N/A   Clear
8:55 AM -8.1 °F -21.2 °F -16.1 °F 68% 30.59 in 10.0 mi West 5.8 mph - N/A   Clear
9:15 AM -7.1 °F -21.4 °F -15.7 °F 66% 30.60 in 10.0 mi WNW 6.9 mph - N/A   Clear
9:35 AM -6.3 °F -21.9 °F -15.3 °F 65% 30.61 in 10.0 mi WNW 8.1 mph - N/A   Clear
9:55 AM -5.8 °F -19.9 °F -15.0 °F 65% 30.61 in 10.0 mi West 6.9 mph - N/A   Clear
10:15 AM -4.9 °F -21.3 °F -14.4 °F 64% 30.62 in 10.0 mi WNW 9.2 mph - N/A   Clear
10:35 AM -4.2 °F -20.4 °F -14.4 °F 61% 30.62 in 10.0 mi WNW 9.2 mph - N/A   Clear
10:55 AM -3.5 °F -19.5 °F -14.1 °F 60% 30.63 in 10.0 mi WNW 9.2 mph - N/A   Clear
11:15 AM -2.9 °F -17.7 °F -13.9 °F 59% 30.62 in 10.0 mi WNW 8.1 mph - N/A   Clear
11:35 AM -1.8 °F -16.4 °F -13.4 °F 58% 30.62 in 10.0 mi WNW 8.1 mph - N/A   Clear
11:55 AM -1.3 °F -15.7 °F -13.2 °F 57% 30.62 in 10.0 mi West 8.1 mph - N/A   Clear
12:15 PM -0.8 °F -15.1 °F -13.2 °F 56% 30.61 in 10.0 mi WNW 8.1 mph - N/A   Clear
12:35 PM -0.2 °F -13.2 °F -13.4 °F 54% 30.61 in 10.0 mi West 6.9 mph - N/A   Clear
12:55 PM -0.2 °F -13.2 °F -12.8 °F 55% 30.61 in 10.0 mi West 6.9 mph 10.4 mph N/A   Clear
1:15 PM 0.3 °F -15.8 °F -13.0 °F 54% 30.60 in 10.0 mi West 10.4 mph - N/A   Clear
1:35 PM 0.5 °F -13.6 °F -13.0 °F 53% 30.60 in 10.0 mi West 8.1 mph - N/A   Clear
1:55 PM 0.5 °F -14.6 °F -13.0 °F 53% 30.59 in 10.0 mi West 9.2 mph - N/A   Clear
2:15 PM 0.9 °F -14.2 °F -12.6 °F 53% 30.59 in 10.0 mi WSW 9.2 mph - N/A   Clear
2:35 PM 1.0 °F -12.9 °F -12.8 °F 52% 30.59 in 10.0 mi West 8.1 mph - N/A   Clear
2:55 PM 0.9 °F -13.1 °F -13.2 °F 52% 30.59 in 10.0 mi West 8.1 mph - N/A   Clear
3:15 PM 0.5 °F -12.3 °F -13.2 °F 53% 30.59 in 10.0 mi West 6.9 mph - N/A   Clear
3:35 PM 0.1 °F -14.0 °F -13.4 °F 53% 30.59 in 10.0 mi West 8.1 mph - N/A   Clear
3:55 PM -0.0 °F -11.6 °F -13.4 °F 54% 30.60 in 10.0 mi West 5.8 mph - N/A   Clear
4:15 PM -0.8 °F -15.1 °F -14.6 °F 52% 30.60 in 10.0 mi West 8.1 mph - N/A   Clear
4:35 PM -1.8 °F -13.7 °F -15.3 °F 53% 30.59 in 10.0 mi West 5.8 mph - N/A   Clear
4:55 PM -2.9 °F -11.2 °F -15.7 °F 54% 30.59 in 10.0 mi West 3.5 mph - N/A   Clear
5:15 PM -4.0 °F -17.8 °F -15.9 °F 57% 30.59 in 10.0 mi WSW 6.9 mph - N/A   Clear
5:35 PM -4.7 °F -19.9 °F -15.7 °F 59% 30.59 in 10.0 mi WSW 8.1 mph - N/A   Clear
5:55 PM -5.3 °F -16.0 °F -16.1 °F 60% 30.59 in 10.0 mi WSW 4.6 mph - N/A   Clear
6:15 PM -6.0 °F -16.9 °F -16.2 °F 61% 30.58 in 10.0 mi WSW 4.6 mph - N/A   Clear
6:35 PM -6.7 °F -17.7 °F -16.8 °F 62% 30.58 in 10.0 mi WSW 4.6 mph - N/A   Clear
6:55 PM -7.4 °F - -17.5 °F 62% 30.57 in 10.0 mi Calm Calm - N/A   Clear
7:15 PM -7.8 °F -16.7 °F -17.1 °F 64% 30.55 in 10.0 mi SW 3.5 mph - N/A   Clear
7:35 PM -8.7 °F - -17.5 °F 65% 30.55 in 10.0 mi Calm Calm - N/A   Clear
7:55 PM -9.8 °F - -18.4 °F 66% 30.53 in 10.0 mi Calm Calm - N/A   Clear
8:35 PM -10.1 °F -19.4 °F -17.7 °F 69% 30.52 in 10.0 mi WSW 3.5 mph - N/A   Clear
8:55 PM -10.3 °F - -17.5 °F 71% 30.51 in 10.0 mi Calm Calm - N/A   Clear
9:15 PM -12.6 °F - -18.9 °F 73% 30.49 in 10.0 mi Calm Calm - N/A   Clear
9:55 PM -15.5 °F -25.6 °F -20.2 °F 79% 30.47 in 10.0 mi SSW 3.5 mph - N/A   Clear
9:56 PM -14.8 °F -24.8 °F -18.4 °F 84% 30.47 in 10.0 mi SSW 3.5 mph - N/A   Clear
10:15 PM -14.8 °F - -22.0 °F 70% 30.46 in 10.0 mi Calm Calm - N/A   Clear
10:35 PM -19.3 °F - -24.7 °F 76% 30.45 in 10.0 mi Calm Calm - N/A   Clear
10:55 PM -19.1 °F - -24.9 °F 75% 30.44 in 10.0 mi Calm Calm - N/A   Clear
11:15 PM -19.5 °F - -26.0 °F 72% 30.41 in 10.0 mi Calm Calm - N/A   Clear
11:35 PM -18.6 °F - -23.4 °F 78% 30.39 in 10.0 mi Calm Calm - N/A   Clear
11:55 PM -19.5 °F - -25.1 °F 76% 30.37 in 10.0 mi Calm Calm - N/A   Clear